Change the Weather History Date:

Saturday, September 14, 2013

  Actual Average Record
Temperature  
Mean Temperature 91 °F -  
Max Temperature 104 °F 99 °F 112 °F (1971)
Min Temperature 78 °F 73 °F 62 °F (1985)
Cooling Degree Days 26    
Growing Degree Days 41 (Base 50)    
Moisture  
Dew Point 54 °F    
Average Humidity 30    
Maximum Humidity 45    
Minimum Humidity 15    
Precipitation  
Precipitation 0.00 in - - ()
Sea Level Pressure  
Sea Level Pressure 29.57 in    
Wind  
Wind Speed 4 mph (NW)    
Max Wind Speed 12 mph    
Max Gust Speed -    
Visibility 10 miles    
Events      
Averages and records for this station are not official NWS values.
T = Trace of Precipitation, MM = Missing Value Source: NWS Daily Summary

Daily Weather History Graph

Daily Weather History Graph

Search for Another Location

Airport or City:

Trip Planner

Search our weather history database for the weather conditions in past years. The results will help you decide how hot, cold, wet, or windy it might be!

Date:

Astronomy

Sep. 14, 2013 Rise Set
Actual Time 6:20 AM PDT 6:46 PM PDT
Civil Twilight 5:55 AM PDT 7:11 PM PDT
Nautical Twilight 5:25 AM PDT 7:41 PM PDT
Astronomical Twilight 4:55 AM PDT 8:11 PM PDT
Moon 3:22 PM PDT (9/14) 1:06 AM PDT (9/14)
Length of Visible Light 13h 15m
Length of Day
12h 25m
Waxing Gibbous, 73% of the Moon is Illuminated
Sep 14
Waxing Gibbous
Sep 19
Full
Sep 26
Last Quarter
Oct 4
New
Oct 11
First Quarter

Hourly Weather History & Observations

Time (PDT) Temp. Heat Index Dew Point Humidity Pressure Visibility Wind Dir Wind Speed Gust Speed Precip Events Conditions
12:56 AM 84.0 °F - 52.0 °F 33% 29.56 in 10.0 mi West 5.8 mph - N/A   Clear
1:56 AM 82.9 °F 81.9 °F 54.0 °F 37% 29.57 in 10.0 mi Calm Calm - N/A   Clear
2:56 AM 80.1 °F 80.1 °F 55.0 °F 42% 29.57 in 10.0 mi West 3.5 mph - N/A   Clear
3:56 AM 80.1 °F 80.0 °F 54.0 °F 40% 29.56 in 10.0 mi Calm Calm - N/A   Clear
4:56 AM 79.0 °F - 54.0 °F 42% 29.57 in 10.0 mi Calm Calm - N/A   Clear
5:56 AM 78.1 °F - 54.0 °F 43% 29.59 in 10.0 mi WSW 4.6 mph - N/A   Clear
6:56 AM 78.1 °F - 55.0 °F 45% 29.61 in 10.0 mi SW 4.6 mph - N/A   Clear
7:56 AM 84.0 °F 83.0 °F 55.9 °F 38% 29.62 in 10.0 mi Calm Calm - N/A   Clear
8:56 AM 87.1 °F 85.7 °F 55.9 °F 35% 29.62 in 10.0 mi North 3.5 mph - N/A   Clear
9:56 AM 91.0 °F 90.0 °F 57.9 °F 33% 29.63 in 10.0 mi NNE 11.5 mph - N/A   Clear
10:56 AM 93.0 °F 92.3 °F 59.0 °F 32% 29.63 in 10.0 mi NNE 9.2 mph - N/A   Clear
11:56 AM 95.0 °F 94.4 °F 59.0 °F 30% 29.61 in 10.0 mi Variable 3.5 mph - N/A   Clear
12:56 PM 98.1 °F 96.1 °F 54.0 °F 23% 29.59 in 10.0 mi NNE 3.5 mph - N/A   Clear
1:56 PM 100.9 °F - 52.0 °F 19% 29.56 in 10.0 mi NNE 3.5 mph - N/A   Clear
2:56 PM 102.0 °F - 50.0 °F 17% 29.54 in 10.0 mi North 3.5 mph - N/A   Clear
3:56 PM 104.0 °F - 46.9 °F 15% 29.52 in 10.0 mi ENE 5.8 mph - N/A   Clear
4:56 PM 102.9 °F - 48.0 °F 16% 29.51 in 10.0 mi East 4.6 mph - N/A   Clear
5:56 PM 102.0 °F - 51.1 °F 18% 29.51 in 10.0 mi ENE 5.8 mph - N/A   Clear
6:56 PM 97.0 °F 94.6 °F 53.1 °F 23% 29.52 in 10.0 mi Calm Calm - N/A   Clear
7:56 PM 93.9 °F 92.6 °F 57.0 °F 29% 29.53 in 10.0 mi Calm Calm - N/A   Clear
8:56 PM 91.9 °F 89.5 °F 54.0 °F 27% 29.55 in 10.0 mi West 5.8 mph - N/A   Clear
9:56 PM 91.0 °F 88.7 °F 54.0 °F 28% 29.55 in 10.0 mi West 8.1 mph - N/A   Clear
10:56 PM 89.1 °F 86.9 °F 54.0 °F 30% 29.57 in 10.0 mi WSW 3.5 mph - N/A   Clear
11:56 PM 88.0 °F 85.9 °F 54.0 °F 31% 29.56 in 10.0 mi WSW 5.8 mph - N/A   Clear